FW4613 Weather Reports


time (UTC)temp
C
wind
direction
speed
KPH
gust
KPH
rain 1hr
cm
rain 24hr
cm
rain mn
cm
humidity
%
barometer
mb
20260505170039 27 33 6.4 17.7 0.00 0.00 0.00 43 1011.1
20260505165551 27 62 6.4 22.5 0.00 0.00 0.00 45 1011.2
20260505165025 27 34 9.7 25.7 0.00 0.00 0.00 44 1011.2
20260505164556 27 44 4.8 25.7 0.00 0.00 0.00 42 1011.4
20260505164038 27 25 11.3 24.1 0.00 0.00 0.00 43 1011.6
20260505163519 27 41 1.6 20.9 0.00 0.00 0.00 46 1011.6
20260505163057 27 46 3.2 20.9 0.00 0.00 0.00 46 1011.7
20260505162539 27 96 0.0 24.1 0.00 0.00 0.00 44 1011.6
20260505162011 26 54 3.2 20.9 0.00 0.00 0.00 46 1011.7
20260505161529 26 65 8.0 20.9 0.00 0.00 0.00 45 1011.7
20260505161013 27 113 3.2 9.7 0.00 0.00 0.00 45 1011.7
20260505160551 26 58 1.6 16.1 0.00 0.00 0.00 45 1011.7
20260505153015 25 56 6.4 20.9 0.00 0.00 0.00 46 1012.0
20260505152551 25 13 9.7 20.9 0.00 0.00 0.00 47 1012.0
20260505152033 25 59 4.8 17.7 0.00 0.00 0.00 47 1011.9
20260505151600 25 43 4.8 20.9 0.00 0.00 0.00 48 1011.9
20260505151507 25 53 4.8 20.9 0.00 0.00 0.00 48 1012.0
20260505151042 25 45 6.4 20.9 0.00 0.00 0.00 49 1012.0
20260505150529 25 33 3.2 16.1 0.00 0.00 0.00 49 1012.1
20260505140504 21 51 6.4 12.9 0.00 0.00 0.00 55 1012.7
20260505124512 19 66 1.6 16.1 0.00 0.00 0.00 62 1013.1
20260505124046 18 40 1.6 12.9 0.00 0.00 0.00 63 1013.0
20260505123511 18 66 4.8 16.1 0.00 0.00 0.00 63 1013.0
20260505123044 18 44 0.0 16.1 0.00 0.00 0.00 64 1013.0
20260505122526 18 76 3.2 11.3 0.00 0.00 0.00 63 1013.0
20260505122007 18 54 0.0 17.7 0.00 0.00 0.00 65 1012.8
20260505121548 18 48 4.8 17.7 0.00 0.00 0.00 65 1012.7
20260505121023 18 27 0.0 9.7 0.00 0.00 0.00 66 1012.8
20260505120600 18 34 0.0 9.7 0.00 0.00 0.00 65 1012.7
20260505120021 17 63 1.6 9.7 0.00 0.00 0.00 67 1012.7
20260505115555 17 48 1.6 11.3 0.00 0.00 0.00 67 1012.6
20260505115036 17 53 0.0 11.3 0.00 0.00 0.00 67 1012.7
20260505114601 17 69 0.0 11.3 0.00 0.00 0.00 68 1012.6
20260505114502 17 66 1.6 11.3 0.00 0.00 0.00 67 1012.6
20260505114043 17 58 0.0 8.0 0.00 0.00 0.00 69 1012.5
20260505113519 17 57 1.6 8.0 0.00 0.00 0.00 69 1012.6
20260505113103 17 54 0.0 1.6 0.00 0.00 0.00 70 1012.6
20260505112535 17 53 0.0 1.6 0.00 0.00 0.00 71 1012.6
20260505112019 16 46 0.0 1.6 0.00 0.00 0.00 74 1012.5
20260505111554 16 47 0.0 1.6 0.00 0.00 0.00 74 1012.5
20260505111032 15 47 0.0 1.6 0.00 0.00 0.00 77 1012.4
20260505110511 15 47 0.0 1.6 0.00 0.00 0.00 77 1012.2
20260505102016 11 47 0.0 0.0 0.00 0.00 0.00 84 1012.1
20260505101556 11 46 0.0 0.0 0.00 0.00 0.00 84 1012.1
20260505101032 11 46 0.0 0.0 0.00 0.00 0.00 84 1012.0
20260505100514 12 46 0.0 0.0 0.00 0.00 0.00 83 1011.9
20260505100044 12 46 0.0 0.0 0.00 0.00 0.00 82 1011.9
20260505095524 12 46 0.0 0.0 0.00 0.00 0.00 81 1012.0
20260505095048 12 46 0.0 0.0 0.00 0.00 0.00 81 1011.8
20260505094510 12 46 0.0 1.6 0.00 0.00 0.00 80 1011.7
20260505094040 12 46 0.0 1.6 0.00 0.00 0.00 80 1011.7
20260505093520 13 46 0.0 0.0 0.00 0.00 0.00 78 1011.7
20260505093051 13 47 0.0 0.0 0.00 0.00 0.00 77 1011.8
20260505092557 13 46 0.0 3.2 0.00 0.00 0.00 77 1011.8
20260505092506 13 46 0.0 3.2 0.00 0.00 0.00 77 1011.9
20260505092035 13 46 0.0 3.2 0.00 0.00 0.00 78 1011.8
20260505091514 13 68 0.0 1.6 0.00 0.00 0.00 79 1011.8
20260505091038 13 68 0.0 1.6 0.00 0.00 0.00 79 1011.9
20260505090515 13 68 0.0 0.0 0.00 0.00 0.00 78 1011.7
20260505090036 13 68 0.0 0.0 0.00 0.00 0.00 78 1011.7
20260505085553 13 68 0.0 0.0 0.00 0.00 0.00 77 1011.5
20260505085033 13 68 0.0 0.0 0.00 0.00 0.00 77 1011.4
20260505084605 13 68 0.0 0.0 0.00 0.00 0.00 76 1011.4
20260505084019 13 68 0.0 0.0 0.00 0.00 0.00 76 1011.5
20260505083542 13 68 0.0 0.0 0.00 0.00 0.00 77 1011.5
20260505083016 13 68 0.0 0.0 0.00 0.00 0.00 77 1011.6
20260505082536 13 68 0.0 0.0 0.00 0.00 0.00 77 1011.7
20260505082014 13 68 0.0 0.0 0.00 0.00 0.00 76 1011.7
20260505081546 13 68 0.0 0.0 0.00 0.00 0.00 76 1011.6
20260505081024 13 68 0.0 0.0 0.00 0.00 0.00 75 1011.6
20260505080554 14 68 0.0 0.0 0.00 0.00 0.00 75 1011.6
20260505080035 14 68 0.0 0.0 0.00 0.00 0.00 74 1011.6
20260505075550 14 68 0.0 0.0 0.00 0.00 0.00 74 1011.8
20260505075024 14 68 0.0 1.6 0.00 0.00 0.00 73 1011.7
20260505074600 15 68 0.0 1.6 0.00 0.00 0.00 73 1011.8
20260505074502 15 68 0.0 1.6 0.00 0.00 0.00 73 1011.7
20260505074024 14 68 0.0 0.0 0.00 0.00 0.00 73 1011.7
20260505073552 14 67 0.0 0.0 0.00 0.00 0.00 73 1011.6
20260505073034 15 67 0.0 0.0 0.00 0.00 0.00 73 1011.6
20260505072557 15 67 0.0 0.0 0.00 0.00 0.00 73 1011.7
20260505072027 15 67 0.0 0.0 0.00 0.00 0.00 73 1011.7
20260505071600 15 67 0.0 0.0 0.00 0.00 0.00 71 1011.7
20260505071039 15 67 0.0 0.0 0.00 0.00 0.00 70 1011.6
20260505070514 15 67 0.0 0.0 0.00 0.00 0.00 68 1011.7
20260505065536 16 68 0.0 3.2 0.00 0.00 0.00 68 1011.7
20260505065013 16 67 0.0 3.2 0.00 0.00 0.00 68 1011.7
20260505064555 15 62 0.0 1.6 0.00 0.00 0.00 68 1011.7
20260505064026 16 62 0.0 1.6 0.00 0.00 0.00 67 1011.7
20260505063556 16 62 0.0 1.6 0.00 0.00 0.00 67 1011.7
20260505063502 16 62 0.0 1.6 0.00 0.00 0.00 67 1011.7
20260505063034 16 61 0.0 1.6 0.00 0.00 0.00 67 1011.8
20260505062512 15 63 0.0 3.2 0.00 0.00 0.00 67 1011.8
20260505062052 15 62 0.0 6.4 0.00 0.00 0.00 67 1011.8
20260505061522 15 51 0.0 4.8 0.00 0.00 0.00 66 1011.7
20260505061042 15 79 0.0 3.2 0.00 0.00 0.00 67 1011.6
20260505060519 15 65 0.0 4.8 0.00 0.00 0.00 67 1011.7
20260505060045 15 53 0.0 6.4 0.00 0.00 0.00 67 1011.7
20260505055514 15 84 0.0 1.6 0.00 0.00 0.00 67 1011.6
20260505055046 15 75 0.0 1.6 0.00 0.00 0.00 66 1011.7
20260505054537 15 74 0.0 1.6 0.00 0.00 0.00 65 1011.7
20260505054050 15 74 0.0 3.2 0.00 0.00 0.00 65 1011.6
20260505053530 16 74 0.0 3.2 0.00 0.00 0.00 64 1011.6
20260505053058 16 63 0.0 3.2 0.00 0.00 0.00 64 1011.7
20260505052537 16 64 0.0 1.6 0.00 0.00 0.00 63 1011.7
20260505052025 16 59 0.0 3.2 0.00 0.00 0.00 63 1011.7
20260505051600 16 59 0.0 3.2 0.00 0.00 0.00 63 1011.8
20260505051502 16 59 0.0 3.2 0.00 0.00 0.00 63 1011.6
20260505051034 16 81 0.0 3.2 0.00 0.00 0.00 63 1011.7
20260505050514 16 70 0.0 1.6 0.00 0.00 0.00 63 1011.8
20260505041508 16 24 0.0 3.2 0.00 0.00 0.00 60 1011.7
20260505041034 16 76 0.0 1.6 0.00 0.00 0.00 60 1011.6
20260505040508 16 66 0.0 1.6 0.00 0.00 0.00 59 1011.6
20260505040059 16 67 0.0 1.6 0.00 0.00 0.00 59 1011.4
20260505035531 16 66 0.0 8.0 0.00 0.00 0.00 58 1011.4
20260505035006 16 71 0.0 8.0 0.00 0.00 0.00 58 1011.4
20260505034534 16 120 0.0 4.8 0.00 0.00 0.00 57 1011.4
20260505034044 16 75 0.0 3.2 0.00 0.00 0.00 57 1011.4
20260505033526 16 82 0.0 3.2 0.00 0.00 0.00 57 1011.4
20260505033101 16 117 0.0 1.6 0.00 0.00 0.00 57 1011.4
20260505032534 16 117 0.0 1.6 0.00 0.00 0.00 57 1011.5
20260505032015 16 121 0.0 3.2 0.00 0.00 0.00 57 1011.4
20260505031546 16 68 0.0 3.2 0.00 0.00 0.00 57 1011.5
20260505031054 16 39 0.0 3.2 0.00 0.00 0.00 57 1011.5
20260505030536 16 49 0.0 0.0 0.00 0.00 0.00 57 1011.4
20260505030019 16 49 0.0 1.6 0.00 0.00 0.00 57 1011.4
20260505025554 16 49 0.0 1.6 0.00 0.00 0.00 57 1011.4
20260505025038 16 49 0.0 1.6 0.00 0.00 0.00 57 1011.4
20260505024513 16 54 0.0 1.6 0.00 0.00 0.00 57 1011.4
20260505024049 16 53 0.0 1.6 0.00 0.00 0.00 57 1011.6
20260505023531 16 53 0.0 1.6 0.00 0.00 0.00 56 1011.7
20260505023012 16 54 0.0 1.6 0.00 0.00 0.00 56 1011.6
20260505022550 16 54 0.0 1.6 0.00 0.00 0.00 56 1011.7
20260505022032 16 54 0.0 1.6 0.00 0.00 0.00 56 1011.7
20260505021516 16 54 0.0 1.6 0.00 0.00 0.00 56 1011.8
20260505021044 16 65 0.0 0.0 0.00 0.00 0.00 56 1011.8
20260505020524 16 65 0.0 0.0 0.00 0.00 0.00 57 1011.7
20260505020100 16 65 0.0 0.0 0.00 0.00 0.00 56 1011.8
20260505020005 16 65 0.0 0.0 0.00 0.00 0.00 56 1011.7
20260505015538 16 65 0.0 1.6 0.00 0.00 0.00 56 1011.8
20260505015019 16 65 0.0 1.6 0.00 0.00 0.00 56 1011.7
20260505014554 16 65 0.0 0.0 0.00 0.00 0.00 56 1011.8
20260505014037 16 65 0.0 0.0 0.00 0.00 0.00 57 1011.7
20260505013521 16 65 0.0 0.0 0.00 0.00 0.00 57 1011.8
20260505013007 16 57 0.0 0.0 0.00 0.00 0.00 58 1011.8
20260505012547 16 57 0.0 0.0 0.00 0.00 0.00 58 1011.7
20260505012006 16 57 0.0 0.0 0.00 0.00 0.00 58 1011.7
20260505011545 16 57 0.0 0.0 0.00 0.00 0.00 57 1011.7
20260505011024 16 57 0.0 0.0 0.00 0.00 0.00 58 1011.5
20260505010557 16 57 0.0 0.0 0.00 0.00 0.00 57 1011.4
20260505010504 16 57 0.0 0.0 0.00 0.00 0.00 56 1011.4
20260505010057 16 57 0.0 0.0 0.00 0.00 0.00 55 1011.3
20260505005524 16 57 0.0 0.0 0.00 0.00 0.00 54 1011.2
20260505005104 17 57 0.0 0.0 0.00 0.00 0.00 53 1011.1
20260505005002 17 57 0.0 0.0 0.00 0.00 0.00 53 1011.2
20260505004538 17 57 0.0 0.0 0.00 0.00 0.00 52 1011.1
20260505004015 17 57 0.0 0.0 0.00 0.00 0.00 51 1011.2
20260505003535 17 57 0.0 0.0 0.00 0.00 0.00 51 1011.2
20260505003054 17 57 0.0 0.0 0.00 0.00 0.00 51 1011.1
20260505002535 17 57 0.0 0.0 0.00 0.00 0.00 50 1011.1
20260505002020 18 57 0.0 0.0 0.00 0.00 0.00 50 1011.3
20260505001556 18 57 0.0 0.0 0.00 0.00 0.00 49 1011.2
20260505001033 18 57 0.0 0.0 0.00 0.00 0.00 48 1011.0
20260505000509 18 57 0.0 1.6 0.00 0.00 0.00 48 1011.0
20260505000046 19 57 0.0 1.6 0.00 0.00 0.00 47 1010.8
20260504235510 19 57 0.0 1.6 0.00 0.00 0.00 47 1010.9
20260504235050 20 57 0.0 3.2 0.00 0.00 0.00 46 1010.9
20260504234526 20 57 0.0 8.0 0.00 0.00 0.00 46 1010.9
20260504234104 20 55 0.0 1.6 0.00 0.00 0.00 45 1010.9
20260504234001 20 131 0.0 1.6 0.00 0.00 0.00 45 1010.9
20260504233523 20 41 0.0 3.2 0.00 0.00 0.00 45 1010.8
20260504233104 20 41 0.0 4.8 0.00 0.00 0.00 44 1010.8
20260504233002 20 61 0.0 4.8 0.00 0.00 0.00 44 1010.8
20260504232535 20 166 0.0 4.8 0.00 0.00 0.00 44 1010.8
20260504232025 21 70 0.0 9.7 0.00 0.00 0.00 44 1010.7
20260504231506 21 69 1.6 19.3 0.00 0.00 0.00 42 1010.8
20260504231044 21 74 3.2 19.3 0.00 0.00 0.00 41 1010.7
20260504230523 21 25 1.6 17.7 0.00 0.00 0.00 41 1010.7
20260504230103 21 72 6.4 17.7 0.00 0.00 0.00 41 1010.7
20260504230002 21 28 3.2 17.7 0.00 0.00 0.00 40 1010.7
20260504225542 22 72 1.6 11.3 0.00 0.00 0.00 40 1010.6
20260504225022 22 250 1.6 17.7 0.00 0.00 0.00 41 1010.6
20260504224557 22 38 3.2 17.7 0.00 0.00 0.00 40 1010.7
20260504224042 22 74 1.6 22.5 0.00 0.00 0.00 41 1010.7
20260504223523 22 62 3.2 22.5 0.00 0.00 0.00 40 1010.6
20260504223101 22 66 1.6 16.1 0.00 0.00 0.00 41 1010.7
20260504223002 22 62 4.8 16.1 0.00 0.00 0.00 40 1010.7
20260504222534 23 62 1.6 6.4 0.00 0.00 0.00 40 1010.8
20260504222011 23 59 0.0 4.8 0.00 0.00 0.00 40 1010.8
20260504221547 22 60 1.6 12.9 0.00 0.00 0.00 40 1010.8
20260504221005 22 61 1.6 12.9 0.00 0.00 0.00 40 1010.8
20260504220542 23 65 4.8 12.9 0.00 0.00 0.00 40 1010.9
20260504220040 23 61 1.6 12.9 0.00 0.00 0.00 40 1010.9
20260504215600 23 169 0.0 11.3 0.00 0.00 0.00 41 1010.8
20260504215501 23 84 0.0 11.3 0.00 0.00 0.00 41 1010.9
20260504215044 22 100 1.6 22.5 0.00 0.00 0.00 40 1010.9
20260504214515 23 61 3.2 22.5 0.00 0.00 0.00 38 1010.9
20260504214053 23 255 1.6 16.1 0.00 0.00 0.00 41 1010.8
20260504213535 23 65 0.0 14.5 0.00 0.00 0.00 40 1010.9
20260504213015 23 91 1.6 19.3 0.00 0.00 0.00 41 1010.9
20260504212550 22 73 1.6 24.1 0.00 0.00 0.00 40 1010.9
20260504212011 22 62 4.8 24.1 0.00 0.00 0.00 40 1010.9
20260504211545 22 73 6.4 19.3 0.00 0.00 0.00 40 1011.0
20260504211025 23 61 6.4 17.7 0.00 0.00 0.00 40 1010.9
20260504210549 23 68 1.6 17.7 0.00 0.00 0.00 40 1010.9
20260504210028 23 32 1.6 19.3 0.00 0.00 0.00 40 1010.9
20260504205506 23 69 1.6 19.3 0.00 0.00 0.00 40 1011.0
20260504205043 23 65 4.8 16.1 0.00 0.00 0.00 41 1010.9
20260504204536 23 84 1.6 11.3 0.00 0.00 0.00 40 1010.9
20260504204007 23 34 1.6 16.1 0.00 0.00 0.00 42 1010.9
20260504203539 23 52 1.6 17.7 0.00 0.00 0.00 41 1010.9
20260504203021 23 74 6.4 17.7 0.00 0.00 0.00 39 1011.0
20260504202557 23 27 1.6 11.3 0.00 0.00 0.00 41 1011.1
20260504202034 23 124 1.6 11.3 0.00 0.00 0.00 41 1011.1
20260504201511 22 57 3.2 17.7 0.00 0.00 0.00 40 1011.1
20260504201043 22 135 1.6 17.7 0.00 0.00 0.00 40 1011.2
20260504200521 22 39 4.8 20.9 0.00 0.00 0.00 40 1011.2
20260504200058 22 67 4.8 20.9 0.00 0.00 0.00 42 1011.3
20260504195523 22 56 6.4 25.7 0.00 0.00 0.00 40 1011.4
20260504195058 22 33 9.7 25.7 0.00 0.00 0.00 40 1011.5
20260504194521 23 70 4.8 14.5 0.00 0.00 0.00 40 1011.6
20260504194052 22 45 3.2 17.7 0.00 0.00 0.00 41 1011.5
20260504193528 22 54 1.6 19.3 0.00 0.00 0.00 42 1011.6
20260504193011 22 79 4.8 19.3 0.00 0.00 0.00 39 1011.7
20260504192543 22 60 0.0 22.5 0.00 0.00 0.00 39 1011.6
20260504192022 22 61 1.6 24.1 0.00 0.00 0.00 40 1011.6
20260504191540 22 91 6.4 24.1 0.00 0.00 0.00 39 1011.7
20260504191057 22 56 4.8 19.3 0.00 0.00 0.00 41 1011.8
20260504190533 22 65 1.6 14.5 0.00 0.00 0.00 41 1011.8
20260504190012 22 74 4.8 25.7 0.00 0.00 0.00 39 1011.8
20260504185547 21 97 6.4 25.7 0.00 0.00 0.00 40 1011.9
20260504185009 22 18 6.4 24.1 0.00 0.00 0.00 40 1012.0
20260504184529 22 66 1.6 24.1 0.00 0.00 0.00 39 1012.0
20260504184015 22 68 3.2 22.5 0.00 0.00 0.00 42 1012.1
20260504183539 21 4 1.6 22.5 0.00 0.00 0.00 40 1012.2
20260504183011 21 78 1.6 22.5 0.00 0.00 0.00 42 1012.3
20260504182549 21 25 8.0 19.3 0.00 0.00 0.00 39 1012.4
20260504182013 21 55 8.0 20.9 0.00 0.00 0.00 39 1012.4
20260504181543 21 57 9.7 22.5 0.00 0.00 0.00 39 1012.5
20260504181025 21 64 8.0 22.5 0.00 0.00 0.00 39 1012.5
20260504180504 21 32 4.8 24.1 0.00 0.00 0.00 40 1012.6
20260504180026 21 70 6.4 24.1 0.00 0.00 0.00 39 1012.7
20260504175555 21 61 11.3 19.3 0.00 0.00 0.00 40 1012.7
20260504175035 21 64 3.2 30.6 0.00 0.00 0.00 40 1012.8
20260504174516 21 27 9.7 30.6 0.00 0.00 0.00 40 1012.9
20260504174049 20 8 4.8 24.1 0.00 0.00 0.00 41 1013.0
20260504173533 20 71 11.3 24.1 0.00 0.00 0.00 40 1013.1
20260504173049 20 24 8.0 24.1 0.00 0.00 0.00 40 1013.0
20260504172513 20 95 8.0 24.1 0.00 0.00 0.00 41 1013.1
20260504172051 20 21 6.4 24.1 0.00 0.00 0.00 40 1013.2
20260504171520 20 77 6.4 24.1 0.00 0.00 0.00 40 1013.2
20260504171055 20 13 9.7 32.2 0.00 0.00 0.00 39 1013.3